Simultaneous Nadir Overpasses (SNOs) Predictions

Prediction of SNOs between METOP-B and TERRA Satellite Orbit:

Table of predicted SNOs for the next 14.0 days since TLE Epoch: 6/6/2015
Index Date (METOP-B) Time (METOP-B) Lat,Lon (METOP-B) SZA (METOP-B ) Date (TERRA) Time (TERRA) Lat,Lon (TERRA) SZA (TERRA ) Distance(km) Time Diff (sec)
1 06/06/2015 20:47:56 81.31, -84.54 61.62 06/06/2015 20:48:20 81.30, -84.72 61.60 3.03 24
2 06/06/2015 21:38:36 -81.31, 83.03 118.36 06/06/2015 21:37:46 -81.31, 83.15 118.37 2.17 50
3 06/09/2015 16:22:20 81.30, -18.29 61.33 06/09/2015 16:22:37 81.30, -18.32 61.33 0.75 17
4 06/09/2015 17:12:59 -81.31, 149.68 118.60 06/09/2015 17:12:03 -81.31, 149.58 118.64 1.73 56
5 06/12/2015 11:56:43 81.31, 48.34 61.13 06/12/2015 11:56:53 81.31, 48.36 61.15 0.70 10
6 06/1
